Address 0xecde6c503745292c50b5a2c6b1c8e0558c4f972f

Txn Hash Method
Block
From
To
Value [Txn Fee]
0x886c43a5a645383014c5893f2d9574f56e5bc276b127d81465f025d3719e15c5Swap Exact Token...169618732022-07-06 6:38:0236 mins ago0xecde6c503745292c50b5a2c6b1c8e0558c4f972fOUT Trader Joe: Router0 AVAX0.00274177525
0x137dce4e3cd7940c4945c268c9a9b7b8cd06f8cfc03198930aefae3ab344d765Swap Tokens For ...169608952022-07-06 6:05:261 hr 8 mins ago0xecde6c503745292c50b5a2c6b1c8e0558c4f972fOUT Trader Joe: Router0 AVAX0.00258032525
0xedafe975f825432e4050ff8014004bb9f7ccec516e2c13e66a1fb575db261912Swap Exact Token...169570782022-07-06 3:57:323 hrs 16 mins ago0xecde6c503745292c50b5a2c6b1c8e0558c4f972fOUT Trader Joe: Router0 AVAX0.00274177525
0xb2f8077dec9f0638284807b9bd118a9e99142ef57c69cb0194000174b2dce3efSwap Tokens For ...169541202022-07-06 2:18:284 hrs 55 mins ago0xecde6c503745292c50b5a2c6b1c8e0558c4f972fOUT Trader Joe: Router0 AVAX0.00258032525
0x4a745a9795cb078f17ba3b6b81a45216d7b3e1d16c08a37222476109dc4b1d79Swap Exact Token...169540122022-07-06 2:14:534 hrs 59 mins ago0xecde6c503745292c50b5a2c6b1c8e0558c4f972fOUT Trader Joe: Router0 AVAX0.00274177525
0x53eda7214606ca0bda019c8aceadf4b5eb2f60a3cf570a780cb33f6244bfc9d0Swap Tokens For ...169521292022-07-06 1:12:086 hrs 2 mins ago0xecde6c503745292c50b5a2c6b1c8e0558c4f972fOUT Trader Joe: Router0 AVAX0.00257972525
0xb15a9b2789dfbb924d81a226919a61b6ef3a11ccaea141a7170f6e42ab4a211aSwap Exact Token...169497872022-07-05 23:53:417 hrs 20 mins ago0xecde6c503745292c50b5a2c6b1c8e0558c4f972fOUT Trader Joe: Router0 AVAX0.00274177525
0xc1f26e7ab67715047f0357d500e65f546f5cb45f33ac9f69743874471c84db31Swap Tokens For ...169497062022-07-05 23:50:577 hrs 23 mins ago0xecde6c503745292c50b5a2c6b1c8e0558c4f972fOUT Trader Joe: Router0 AVAX0.00258002525
0x40b76cce66806c97220e254c1737f30740b701748c7f8f4354b0de95ae982587Swap Exact Token...169464632022-07-05 22:03:019 hrs 11 mins ago0xecde6c503745292c50b5a2c6b1c8e0558c4f972fOUT Trader Joe: Router0 AVAX0.00274177525
0x524c6b175fe53bb14e8ac33096a5a570ff0a3101d42485dce9110e0f6dc7e794Swap Tokens For ...169449682022-07-05 21:13:0210 hrs 1 min ago0xecde6c503745292c50b5a2c6b1c8e0558c4f972fOUT Trader Joe: Router0 AVAX0.00258032525
0xc28be34c7030938e3a9de7c63ec1cc7b24521ed6a1c2cc0068a635021509274cSwap Exact Token...169422952022-07-05 19:43:4011 hrs 30 mins ago0xecde6c503745292c50b5a2c6b1c8e0558c4f972fOUT Trader Joe: Router0 AVAX0.00274207525
0xe1602bb6bfb7a710ee1fb604088ccf77f83e8a330aa601319f3d20e3f27750ebSwap Tokens For ...169418312022-07-05 19:28:2211 hrs 45 mins ago0xecde6c503745292c50b5a2c6b1c8e0558c4f972fOUT Trader Joe: Router0 AVAX0.00258032525
0xc5a3183c04c29961b6ea015a28db2ef0e233facbecd5985c8c867c12ce9f5ed6Swap Exact Token...169328792022-07-05 14:28:2416 hrs 45 mins ago0xecde6c503745292c50b5a2c6b1c8e0558c4f972fOUT Trader Joe: Router0 AVAX0.00274177525
0x880742eee29ea7a13b8e0d6016f3d5bf298f7bf3031e06029b618600a45faa55Swap Tokens For ...169312972022-07-05 13:35:3517 hrs 38 mins ago0xecde6c503745292c50b5a2c6b1c8e0558c4f972fOUT Trader Joe: Router0 AVAX0.00258032525
0x882614c7de958d7f84389aeed611e832d58beaebb8567126f4d8c196ecb3bf38Swap Exact Token...169310962022-07-05 13:28:4717 hrs 45 mins ago0xecde6c503745292c50b5a2c6b1c8e0558c4f972fOUT Trader Joe: Router0 AVAX0.00274207525
0xe5dc42a29375fd2c646e6364128835781577e553d7685ca5eb0a71b70945da1dSwap Exact Token...169310452022-07-05 13:27:0217 hrs 47 mins ago0xecde6c503745292c50b5a2c6b1c8e0558c4f972fOUT Trader Joe: Router0 AVAX0.00274177525
0xd0c91de35abc04513967037ce27d13f7b6acb6ab549002e8d92bae4456d36d82Swap Tokens For ...169282692022-07-05 11:54:1319 hrs 20 mins ago0xecde6c503745292c50b5a2c6b1c8e0558c4f972fOUT Trader Joe: Router0 AVAX0.00258002525
0x7cffd959e10293c71994935a58f96e31a8a1a0b2c1cbd9a068c65b187bfc6112Swap Exact Token...169277622022-07-05 11:37:1019 hrs 37 mins ago0xecde6c503745292c50b5a2c6b1c8e0558c4f972fOUT Trader Joe: Router0 AVAX0.00274177525
0xc7f38517ed92d578ab46387b763fc1a5e2022b4f3174f0d69ebbf0557451fc98Swap Tokens For ...169256302022-07-05 10:25:4320 hrs 48 mins ago0xecde6c503745292c50b5a2c6b1c8e0558c4f972fOUT Trader Joe: Router0 AVAX0.00258032525
0xa4c9aac5c90b267d7f4a2441061333e0f8fdd11543732b1c8a3cc3dde007c332Swap Exact Token...169250122022-07-05 10:05:0221 hrs 9 mins ago0xecde6c503745292c50b5a2c6b1c8e0558c4f972fOUT Trader Joe: Router0 AVAX0.00274177525
0xc9680dfabd402584d842874f97a71f6b50d625dcb7900408f10d8319d1b6fd24Swap Tokens For ...169233732022-07-05 9:09:3322 hrs 4 mins ago0xecde6c503745292c50b5a2c6b1c8e0558c4f972fOUT Trader Joe: Router0 AVAX0.00258032525
0x4d5689b67356f0e635bb772c0d1f31f4c3b7a09f170400c7eb9d2a64cf741369Swap Exact Token...169173472022-07-05 5:46:011 day 1 hr ago0xecde6c503745292c50b5a2c6b1c8e0558c4f972fOUT Trader Joe: Router0 AVAX0.00274177525
0xdddd566410f6d764145a1716f4567f2f5cfc13320afda5669829366f7be3279dSwap Exact Token...169093312022-07-05 1:16:151 day 5 hrs ago0xecde6c503745292c50b5a2c6b1c8e0558c4f972fOUT Trader Joe: Router0 AVAX0.00274177525
0x22efe159c46820162c7d80bbcc20b5dc11ee1961fad4411d4594efbb7ad783ebSwap Tokens For ...169088282022-07-05 0:59:161 day 6 hrs ago0xecde6c503745292c50b5a2c6b1c8e0558c4f972fOUT Trader Joe: Router0 AVAX0.00258032525
0x1b9b848457b60c5d27b85c6584878ed8e5c9d75d3c9a301fb1fabc77bf9d13e3Swap Exact Token...169030022022-07-04 21:43:351 day 9 hrs ago0xecde6c503745292c50b5a2c6b1c8e0558c4f972fOUT Trader Joe: Router0 AVAX0.00274177525
[ Download CSV Export 
Latest 8 internal transactions
Parent Txn Hash Block From To Value
0xc04fb6e50c79b93322f5ec3b80144b17f871cfc9fae872fac32b71abaa8b9a02136221502022-04-19 11:49:2977 days 19 hrs ago Wrapped AVAX0xecde6c503745292c50b5a2c6b1c8e0558c4f972f1.96 AVAX
0x6af4b4d2bc0dd0ff6f2da8c9f05e0b2659277e41f70f5e7a08d0b93d2a6c2852128554972022-04-01 12:07:4195 days 19 hrs ago Wrapped AVAX0xecde6c503745292c50b5a2c6b1c8e0558c4f972f1.8 AVAX
0xb13872e2f57356299a6124c7ad59a382fccfd490df0e923383b2415d4a498c1d124758862022-03-23 13:48:38104 days 17 hrs ago Wrapped AVAX0xecde6c503745292c50b5a2c6b1c8e0558c4f972f0.82 AVAX
0x699530600e87071fae50b4ab372d4667368915c4506d7abb9510349664358f42120948442022-03-14 10:18:39113 days 20 hrs ago Wrapped AVAX0xecde6c503745292c50b5a2c6b1c8e0558c4f972f0.9 AVAX
0xfe7e76dfa02c9fd55fd69c932d71305a72ed5d03c05ffc13091b879e53ba6d23111306602022-02-19 17:02:35136 days 14 hrs ago Wrapped AVAX0xecde6c503745292c50b5a2c6b1c8e0558c4f972f2 AVAX
0x325a4f2d626f994562b50d9724d2204c9dbe6ae5884d7ec2f95053b2d00d5fa8103027142022-01-31 14:21:06155 days 16 hrs ago Wrapped AVAX0xecde6c503745292c50b5a2c6b1c8e0558c4f972f2 AVAX
0x2485a346f48fa7a386a53b0e142ffdf0f90bb9f5a5e10607d25f78938887dd7372386212021-11-21 13:22:37226 days 17 hrs ago Wrapped AVAX0xecde6c503745292c50b5a2c6b1c8e0558c4f972f5 AVAX
0xf6d22b162ce7ff08cd9c8687176696edd4eca9b25992c50b8811bf4c22a10c2565510522021-11-05 10:10:54242 days 21 hrs ago Wrapped AVAX0xecde6c503745292c50b5a2c6b1c8e0558c4f972f393 AVAX
[ Download CSV Export 
Loading

Contract Name:
0

Compiler Version
0

Optimization Enabled:
0

Other Settings:
-NA-
Block Transaction Gas Used Reward
Age Block Fee Address BC Fee Address Voting Power Jailed Incoming
Block Uncle Number Difficulty Gas Used Reward
Loading
Make sure to use the "Vote Down" button for any spammy posts, and the "Vote Up" for interesting conversations.